Change the Weather History Date:

Friday, July 18, 2014

  Actual Average Record
Temperature  
Mean Temperature 67 °F 66 °F  
Max Temperature 81 °F 77 °F 93 °F (1991)
Min Temperature 52 °F 55 °F 42 °F (1895)
Degree Days  
Heating Degree Days 0 2  
Month to date heating degree days 75 46  
Since 1 June heating degree days 184 226  
Since 1 July heating degree days 75 46  
Cooling Degree Days 2 3  
Month to date cooling degree days 9 45  
Year to date cooling degree days 48 80  
Since 1 June cooling degree days 46 75  
Growing Degree Days 16 (Base 50)    
Moisture  
Dew Point 51 °F    
Average Humidity 61    
Maximum Humidity 89    
Minimum Humidity 33    
Precipitation  
Precipitation 0.00 in 0.10 in 1.40 in (1996)
Month to date precipitation 0.59 1.56  
Year to date precipitation 15.55 14.70  
Sea Level Pressure  
Sea Level Pressure 30.12 in    
Wind  
Wind Speed 5 mph (South)    
Max Wind Speed 17 mph    
Max Gust Speed 23 mph    
Visibility 10 miles    
Events      
T = Trace of Precipitation, MM = Missing Value Source: NWS Daily Summary

Daily Weather History Graph

Daily Weather History Graph

Search for Another Location

Airport or City:

Trip Planner

Search our weather history database for the weather conditions in past years. The results will help you decide how hot, cold, wet, or windy it might be!

Date:

Astronomy

Jul. 18, 2014 Rise Set
Actual Time 6:02 AM EDT 9:24 PM EDT
Civil Twilight 5:25 AM EDT 10:01 PM EDT
Nautical Twilight 4:36 AM EDT 10:49 PM EDT
Astronomical Twilight 3:34 AM EDT 11:51 PM EDT
Moon 12:17 AM EDT (7/18) 1:47 PM EDT (7/18)
Length of Visible Light 16h 35m
Length of Day
15h 21m
Waning Gibbous, 55% of the Moon is Illuminated
Jul 18
Waning Gibbous
Jul 18
Last Quarter
Jul 26
New
Aug 3
First Quarter
Aug 10
Full

Hourly Weather History & Observations

Time (EDT) Temp. Heat Index Dew Point Humidity Pressure Visibility Wind Dir Wind Speed Gust Speed Precip Events Conditions
12:55 AM 57.0 °F - 46.9 °F 69% 30.09 in 10.0 mi Calm Calm - N/A   Clear
1:55 AM 57.9 °F - 46.0 °F 65% 30.09 in 10.0 mi SW 5.8 mph - N/A   Clear
2:55 AM 55.0 °F - 46.0 °F 72% 30.09 in 10.0 mi Calm Calm - N/A   Clear
3:55 AM 53.1 °F - 46.0 °F 77% 30.10 in 10.0 mi Calm Calm - N/A   Clear
4:55 AM 52.0 °F - 48.9 °F 89% 30.11 in 10.0 mi East 4.6 mph - N/A   Clear
5:55 AM 52.0 °F - 48.9 °F 89% 30.12 in 10.0 mi ENE 4.6 mph - N/A   Scattered Clouds
6:55 AM 53.1 °F - 48.9 °F 86% 30.13 in 10.0 mi East 4.6 mph - N/A   Clear
7:55 AM 55.0 °F - 50.0 °F 83% 30.15 in 10.0 mi Variable 3.5 mph - N/A   Overcast
8:55 AM 57.9 °F - 52.0 °F 81% 30.17 in 10.0 mi Calm Calm - N/A   Overcast
9:55 AM 62.1 °F - 55.0 °F 78% 30.17 in 10.0 mi Calm Calm - N/A   Scattered Clouds
10:55 AM 68.0 °F - 55.9 °F 65% 30.16 in 10.0 mi Variable 3.5 mph - N/A   Scattered Clouds
11:55 AM 73.0 °F - 59.0 °F 61% 30.15 in 10.0 mi Calm Calm - N/A   Clear
12:55 PM 79.0 °F - 55.9 °F 45% 30.13 in 10.0 mi South 9.2 mph - N/A   Scattered Clouds
1:55 PM 80.1 °F 79.9 °F 53.1 °F 39% 30.12 in 10.0 mi SSW 10.4 mph - N/A   Clear
2:55 PM 80.1 °F - 48.0 °F 32% 30.12 in 10.0 mi SW 10.4 mph - N/A   Clear
3:55 PM 80.1 °F - 50.0 °F 35% 30.12 in 10.0 mi South 10.4 mph - N/A   Partly Cloudy
4:55 PM 79.0 °F - 51.1 °F 38% 30.11 in 10.0 mi South 11.5 mph 17.3 mph N/A   Mostly Cloudy
5:55 PM 79.0 °F - 48.9 °F 35% 30.11 in 10.0 mi SW 8.1 mph - N/A   Partly Cloudy
6:55 PM 77.0 °F - 50.0 °F 39% 30.11 in 10.0 mi WSW 11.5 mph - N/A   Clear
7:55 PM 75.0 °F - 51.1 °F 43% 30.11 in 10.0 mi SSW 8.1 mph - N/A   Clear
8:55 PM 70.0 °F - 55.0 °F 59% 30.12 in 10.0 mi South 5.8 mph - N/A   Clear
9:55 PM 66.0 °F - 54.0 °F 65% 30.12 in 10.0 mi SSE 5.8 mph - N/A   Clear
10:55 PM 63.0 °F - 52.0 °F 67% 30.12 in 10.0 mi SE 4.6 mph - N/A   Clear
11:55 PM 62.1 °F - 52.0 °F 70% 30.11 in 10.0 mi SE 3.5 mph - N/A   Clear